Overview Statistics Trail Chart Weather Telemetry Raw packets
 

This is the latest recevied weather packets stored in our database for station/object KO4LCK. If no packets are shown the sender has not sent any weather packets the latest 10 day(s).

<< 92 93 94 95 96 97 98 >>
Time Temp. Humidity Pressure Rain* Wind** Luminosity Snow
1787939314 32.78° C 55% 1018.1 hPa 0 mm - 171 W/m² -
1787939009 33.33° C 51% 1018.1 hPa 0 mm - 159 W/m² -
1787938707 33.89° C 52% 1017.9 hPa 0 mm - 435 W/m² -
1787938404 33.89° C 51% 1018 hPa 0 mm - 857 W/m² -
1787938099 33.33° C 56% 1018.2 hPa 0 mm - 829 W/m² -
1787937794 32.78° C 55% 1018.1 hPa 0 mm - 754 W/m² -
1787937490 33.33° C 55% 1018.1 hPa 0 mm - 163 W/m² -
1787937187 33.33° C 56% 1018.1 hPa 0 mm - 851 W/m² -
1787936887 32.22° C 56% 1018.2 hPa 0 mm - 800 W/m² -
1787936586 31.67° C 56% 1018.2 hPa 0 mm - 788 W/m² -
1787936285 32.22° C 55% 1018.2 hPa 0 mm - 778 W/m² -
1787935981 32.22° C 56% 1018.3 hPa 0 mm - 793 W/m² -
1787935676 32.22° C 58% 1018.5 hPa 0 mm - 168 W/m² -
1787935373 32.22° C 57% 1018.4 hPa 0 mm - 165 W/m² -
1787935068 32.78° C 57% 1018.6 hPa 0 mm - 855 W/m² -
1787934763 32.78° C 56% 1018.4 hPa 0 mm - 797 W/m² -
1787934462 32.22° C 58% 1018.5 hPa 0 mm - 789 W/m² -
1787934157 31.67° C 61% 1018.5 hPa 0 mm - 784 W/m² -
1787933856 31.67° C 60% 1018.4 hPa 0 mm - 772 W/m² -
1787933551 30.56° C 65% 1018.6 hPa 0 mm - 761 W/m² -
1787933246 30.56° C 63% 1018.7 hPa 0 mm - 756 W/m² -
1787932947 31.67° C 62% 1018.7 hPa 0 mm - 732 W/m² -
1787932639 31.67° C 61% 1018.6 hPa 0 mm - 706 W/m² -
1787932333 31.67° C 63% 1018.7 hPa 0 mm - 692 W/m² -
1787932028 31.11° C 65% 1018.5 hPa 0 mm - 678 W/m² -

* Rain latest hour (hover to see other rain measurements)
** Current wind speed in m/s (hover to see current wind gust speed)